FW4018 Weather Reports


Display with metric or nautical units.
time (UTC)temp
F
wind
direction
speed
MPH
gust
MPH
rain 1hr
in
rain 24hr
in
rain mn
in
humidity
%
barometer
mb
20190920080016 65 39 1.0 5.0 0.01 0.01 0.01 60 1014.4
20190920075016 64 33 2.0 5.0 0.01 0.01 0.01 60 1014.6
20190920074016 63 8 3.0 7.0 0.01 0.01 0.01 65 1014.8
20190920073016 62 359 2.0 5.0 0.01 0.01 0.01 64 1014.9
20190920072016 62 20 1.0 4.0 0.00 0.00 0.00 64 1015.0
20190920071016 61 44 1.0 6.0 0.00 0.00 0.00 64 1014.9
20190920070017 61 52 1.0 5.0 0.00 0.00 0.00 64 1014.9
20190920065016 61 25 1.0 5.0 0.00 0.00 0.00 63 1015.2
20190920064016 61 57 2.0 5.0 0.00 0.00 0.00 64 1015.1
20190920063016 61 67 2.0 6.0 0.00 0.00 0.00 66 1015.1
20190920062016 60 78 1.0 5.0 0.00 0.00 0.00 66 1015.3
20190920061016 60 81 1.0 8.0 0.00 0.00 0.00 69 1015.4
20190920060016 59 112 2.0 6.0 0.00 0.00 0.00 69 1015.4
20190920055016 59 110 1.0 5.0 0.00 0.00 0.00 72 1015.4
20190920054016 59 107 1.0 5.0 0.00 0.00 0.00 73 1015.5
20190920053016 58 93 1.0 3.0 0.00 0.00 0.00 75 1015.7
20190920052016 58 110 1.0 3.0 0.00 0.00 0.00 78 1015.8
20190920051016 58 75 2.0 5.0 0.00 0.00 0.00 79 1015.8
20190920050016 57 82 2.0 5.0 0.00 0.00 0.00 84 1015.8
20190920045017 57 63 1.0 5.0 0.00 0.00 0.00 86 1015.8
20190920044018 57 63 2.0 5.0 0.00 0.00 0.00 87 1016.1
20190920043017 57 97 1.0 2.0 0.00 0.00 0.00 88 1016.1
20190920042017 57 53 1.0 2.0 0.00 0.00 0.00 88 1016.3
20190920041017 57 65 2.0 5.0 0.00 0.00 0.00 89 1016.1
20190920040017 56 52 3.0 5.0 0.00 0.00 0.00 93 1016.1
20190920035017 56 53 1.0 2.0 0.00 0.00 0.00 97 1016.5
20190920034017 56 355 2.0 4.0 0.00 0.00 0.00 97 1016.6
20190920033017 56 48 0.0 2.0 0.00 0.00 0.00 99 1016.4
20190920032017 56 28 0.0 3.0 0.00 0.00 0.00 100 1016.5
20190920031017 56 357 1.0 5.0 0.00 0.00 0.00 100 1016.8
20190920030017 55 9 1.0 2.0 0.00 0.00 0.00 100 1016.9
20190920025017 55 347 1.0 3.0 0.00 0.00 0.00 100 1017.0
20190920024017 55 11 0.0 1.0 0.00 0.00 0.00 100 1016.9
20190920023018 55 325 1.0 3.0 0.00 0.00 0.00 100 1017.0
20190920022017 55 347 0.0 0.0 0.00 0.00 0.00 99 1016.9
20190920021017 56 13 0.0 2.0 0.00 0.00 0.00 98 1017.1
20190920020017 56 336 1.0 3.0 0.00 0.00 0.00 96 1017.0
20190920015017 56 345 0.0 2.0 0.00 0.00 0.00 95 1016.8
20190920014017 55 84 1.0 3.0 0.00 0.00 0.00 96 1016.7
20190920013017 55 49 0.0 4.0 0.00 0.00 0.00 100 1016.8
20190920012017 55 68 0.0 3.0 0.00 0.00 0.00 100 1016.9
20190920011017 55 78 0.0 1.0 0.00 0.00 0.00 100 1016.9
20190920010017 55 0.0 0.0 0.00 0.00 0.00 100 1017.1
20190920005017 55 0.0 0.0 0.00 0.00 0.00 100 1017.2
20190920004017 55 0.0 0.0 0.00 0.00 0.00 100 1017.4
20190920003017 56 314 0.0 0.0 0.00 0.00 0.00 100 1017.5
20190920002017 56 314 0.0 0.0 0.00 0.00 0.00 99 1017.5
20190920001017 56 107 0.0 2.0 0.00 0.00 0.00 100 1017.4
20190920000017 56 179 0.0 0.0 0.00 0.00 0.00 100 1017.3
20190919235018 55 121 0.0 2.0 0.00 0.00 0.00 100 1017.4
20190919234017 55 0.0 0.0 0.00 0.00 0.00 100 1017.6
20190919233017 56 0.0 0.0 0.00 0.00 0.00 100 1017.7
20190919232017 56 43 0.0 0.0 0.00 0.00 0.00 100 1017.6
20190919231017 56 337 0.0 0.0 0.00 0.00 0.00 100 1018.0
20190919230017 56 0.0 0.0 0.00 0.00 0.00 100 1018.0
20190919225018 56 0.0 0.0 0.00 0.00 0.00 99 1018.1
20190919224017 56 0.0 0.0 0.00 0.00 0.00 95 1018.2
20190919223018 57 314 1.0 2.0 0.00 0.00 0.00 91 1018.1
20190919222017 57 119 0.0 0.0 0.00 0.00 0.00 92 1017.8
20190919221017 57 0.0 0.0 0.00 0.00 0.00 93 1018.0
20190919220017 57 134 0.0 0.0 0.00 0.00 0.00 93 1018.1
20190919215017 56 0.0 0.0 0.00 0.00 0.00 93 1018.2
20190919214017 56 322 0.0 1.0 0.00 0.00 0.00 92 1018.1
20190919213017 56 342 0.0 1.0 0.00 0.00 0.00 90 1017.8
20190919212017 56 340 0.0 1.0 0.00 0.00 0.00 88 1017.7
20190919211018 57 327 0.0 1.0 0.00 0.00 0.00 86 1017.8
20190919210017 58 5 0.0 1.0 0.00 0.00 0.00 82 1017.6
20190919205017 58 34 0.0 2.0 0.00 0.00 0.00 80 1017.9
20190919204017 59 15 0.0 2.0 0.00 0.00 0.00 80 1018.0
20190919203017 59 18 0.0 2.0 0.00 0.00 0.00 80 1018.1
20190919202017 59 338 0.0 0.0 0.00 0.00 0.00 80 1018.2
20190919201016 59 330 0.0 1.0 0.00 0.00 0.00 80 1018.4
20190919200018 59 0.0 0.0 0.00 0.00 0.00 80 1018.3
20190919195017 59 356 0.0 1.0 0.00 0.00 0.00 80 1018.4
20190919194017 59 354 0.0 1.0 0.00 0.00 0.00 80 1018.4
20190919193017 59 344 1.0 3.0 0.00 0.00 0.00 80 1018.4
20190919192017 59 332 1.0 3.0 0.00 0.00 0.00 81 1018.4
20190919191017 59 327 1.0 2.0 0.00 0.00 0.00 81 1018.4
20190919190017 59 352 1.0 2.0 0.00 0.00 0.00 80 1018.4
20190919185017 59 356 0.0 2.0 0.00 0.00 0.00 80 1018.3
20190919184017 59 342 0.0 2.0 0.00 0.00 0.00 80 1018.3
20190919183017 59 353 0.0 2.0 0.00 0.00 0.00 80 1018.2
20190919182017 59 358 0.0 1.0 0.00 0.00 0.00 80 1018.2
20190919181017 60 343 0.0 2.0 0.00 0.00 0.00 79 1018.3
20190919180017 60 0 0.0 2.0 0.00 0.00 0.00 79 1018.4
20190919175018 60 346 1.0 2.0 0.00 0.00 0.00 80 1018.4
20190919174017 59 352 1.0 3.0 0.00 0.01 0.00 79 1018.4
20190919173017 59 326 1.0 3.0 0.00 0.05 0.00 79 1018.5
20190919172016 60 339 2.0 4.0 0.00 0.05 0.00 78 1018.4
20190919171017 60 325 1.0 4.0 0.00 0.06 0.00 76 1018.4
20190919170017 61 326 2.0 4.0 0.00 0.06 0.00 72 1018.4
20190919165017 62 330 1.0 2.0 0.00 0.06 0.00 71 1018.3
20190919164017 62 337 1.0 3.0 0.00 0.06 0.00 71 1018.2
20190919163017 62 337 1.0 3.0 0.00 0.06 0.00 71 1018.2
20190919162017 62 334 1.0 2.0 0.00 0.06 0.00 70 1018.2
20190919161017 62 340 1.0 2.0 0.00 0.06 0.00 69 1018.1
20190919160016 62 330 0.0 2.0 0.00 0.06 0.00 68 1018.1
20190919155017 62 330 0.0 2.0 0.00 0.06 0.00 67 1018.0
20190919154017 63 332 1.0 3.0 0.00 0.06 0.00 66 1018.1
20190919153018 63 330 2.0 3.0 0.00 0.06 0.00 64 1018.1
20190919152017 64 320 1.0 2.0 0.00 0.06 0.00 62 1018.1
20190919151017 64 343 0.0 2.0 0.00 0.06 0.00 61 1018.1
20190919150017 64 323 1.0 3.0 0.00 0.06 0.00 60 1018.3
20190919145016 65 324 1.0 3.0 0.00 0.06 0.00 60 1018.4
20190919144016 65 307 1.0 2.0 0.00 0.06 0.00 60 1018.5
20190919143017 65 317 2.0 4.0 0.00 0.06 0.00 60 1018.3
20190919142017 65 338 1.0 5.0 0.00 0.06 0.00 60 1018.2
20190919141016 65 321 2.0 5.0 0.00 0.06 0.00 59 1018.3
20190919140017 66 313 1.0 5.0 0.00 0.06 0.00 58 1018.4
20190919135016 66 312 2.0 5.0 0.00 0.06 0.00 57 1018.4
20190919134016 67 335 2.0 5.0 0.00 0.06 0.00 55 1018.1
20190919133016 67 330 2.0 5.0 0.00 0.06 0.00 54 1018.1
20190919132017 67 318 0.0 3.0 0.00 0.06 0.00 52 1018.1
20190919131017 68 320 2.0 4.0 0.00 0.06 0.00 51 1018.0
20190919130016 68 318 2.0 4.0 0.00 0.06 0.00 50 1018.3
20190919125017 68 352 1.0 4.0 0.00 0.06 0.00 50 1018.2
20190919124017 69 350 1.0 4.0 0.00 0.06 0.00 49 1018.3
20190919123017 69 324 2.0 5.0 0.00 0.06 0.00 48 1018.2
20190919122017 70 309 2.0 4.0 0.00 0.06 0.00 47 1018.3
20190919121017 70 318 0.0 4.0 0.00 0.06 0.00 47 1018.2
20190919120016 70 6 0.0 1.0 0.00 0.06 0.00 46 1018.2
20190919115016 70 0 1.0 4.0 0.00 0.06 0.00 46 1018.2
20190919114017 70 357 1.0 5.0 0.00 0.06 0.00 45 1018.2
20190919113017 71 336 2.0 5.0 0.00 0.06 0.00 45 1018.3
20190919112016 71 331 3.0 5.0 0.00 0.06 0.00 44 1018.2
20190919111017 71 324 3.0 5.0 0.00 0.06 0.00 43 1018.3
20190919110016 72 314 3.0 7.0 0.00 0.06 0.00 41 1018.3
20190919105016 73 340 5.0 8.0 0.00 0.06 0.00 41 1018.3
20190919104016 72 323 3.0 8.0 0.00 0.06 0.00 43 1018.3
20190919103016 73 315 3.0 8.0 0.00 0.06 0.00 42 1018.3
20190919102018 73 317 2.0 6.0 0.00 0.06 0.00 43 1018.2
20190919101016 72 344 3.0 8.0 0.00 0.06 0.00 43 1018.3
20190919100016 71 297 2.0 5.0 0.00 0.06 0.00 45 1018.4
20190919095016 71 334 2.0 5.0 0.00 0.06 0.00 46 1018.4
20190919094016 71 319 3.0 6.0 0.00 0.06 0.00 44 1018.5
20190919093016 72 307 3.0 6.0 0.00 0.06 0.00 45 1018.4
20190919092016 72 324 2.0 7.0 0.00 0.06 0.00 45 1018.4
20190919091016 72 299 2.0 4.0 0.00 0.06 0.00 46 1018.4
20190919090017 71 294 2.0 8.0 0.00 0.06 0.00 46 1018.4
20190919085016 71 315 2.0 4.0 0.00 0.06 0.00 46 1018.4
20190919084016 71 320 2.0 9.0 0.00 0.06 0.00 47 1018.4
20190919083016 71 332 3.0 6.0 0.00 0.06 0.00 47 1018.5
20190919082016 71 308 2.0 8.0 0.00 0.06 0.00 46 1018.5
20190919081016 71 230 2.0 7.0 0.00 0.06 0.00 46 1018.6